Location: Krasnoyarskiy
(51.1133°N, 71.6497°E)
Time: 21:37:34
(UTC+00:00)

Cosmos 1743 - Pass Details

Date: 27 September 2022
Orbit: 503 x 517 km, 82.6° (Epoch: 03 December)

Event Time Altitude Azimuth Distance (km) Brightness Sun altitude
Rises 00:10:24 0° 342° (NNW) 2,622 6.2 -9.7°
Reaches altitude 10° 00:12:39 10° 333° (NNW) 1,733 5.2 -9.3°
Maximum altitude 00:16:06 34° 268° (W) 859 3.3 -8.8°
Drops below altitude 10° 00:19:32 10° 203° (SSW) 1,726 5.1 -8.3°
Sets 00:21:46 0° 194° (SSW) 2,610 6.1 -7.9°
